Location: Unspecified
(0.0000°N, 0.0000°E)
Time: 21:31:28
(UTC+00:00)

Explorer 7 - Pass Details

Date: 20 June 2025
Orbit: 444 x 569 km, 50.3° (Epoch: 12 July)

Event Time Altitude Azimuth Distance (km) Brightness Sun altitude
Rises 11:02:31 0° 218° (SW) 2,731 10.1 62.5°
Reaches altitude 10° 11:04:49 10° 219° (SW) 1,818 9.3 62.8°
Maximum altitude 11:08:58 81° 306° (NW) 543 8.2 63.3°
Drops below altitude 10° 11:12:55 10° 34° (NE) 1,739 10.0 63.7°
Sets 11:15:04 0° 35° (NE) 2,599 10.6 64.0°
